Location: Caixon
(43.4106°N, 0.0273°E)
Time: 16:25:26
(UTC+00:00)

USA 234 - Pass Details

Date: 16 October 2021
Orbit: 1098 x 1110 km, 123.0° (Epoch: 25 November)

Event Time Altitude Azimuth Distance (km) Brightness Sun altitude
Rises 03:39:39 0° 49° (NE) 3,919 7.1 -28.8°
Reaches altitude 10° 03:42:07 10° 49° (NE) 2,960 6.3 -28.3°
Maximum altitude 03:48:41 89° 134° (SE) 1,106 3.1 -27.2°
Enters shadow 03:50:07 59° 230° (SW) 1,260 3.2 -26.9°
